This demonstration page uses our WeatherBlox Daily Observations layout. Learn more.

Left ArrowRight Arrow

Hourly Observations for May 4, 2022

Temp ( °F °C ) Dew Point ( °F °C ) Humidity (%) Winds ( mph kmh ) Pressure ( in mb ) Visibility ( mi km ) Precip ( " mm )
12:53 am 00:53 Clear 50 10 44 6.7 80 80 E 8 13 30.03 1017 10 16 0.00 0.00
1:18 am 01:18 Mostly Cloudy 51 10.6 44 6.7 77 77 E 8 13 30.05 1018 10 16 0.00 0.00
1:53 am 01:53 Cloudy 52 11.1 45 7.2 77 77 E 7 11 30.04 1017 10 16 0.00 0.00
2:53 am 02:53 Cloudy 52 11.1 45 7.2 77 77 E 7 11 30.03 1017 10 16 0.00 0.00
3:53 am 03:53 Cloudy 51 10.6 44 6.7 77 77 E 9 15 30.03 1017 10 16 0.00 0.00
4:53 am 04:53 Cloudy 51 10.6 44 6.7 77 77 E 10 17 30.02 1017 10 16 0.00 0.00
5:53 am 05:53 Cloudy 51 10.6 44 6.7 77 77 E 9 15 30.02 1017 10 16 0.00 0.00
6:53 am 06:53 Cloudy 51 10.6 44 6.7 77 77 E 13 20 30.01 1016 10 16 0.00 0.00
7:53 am 07:53 Cloudy 51 10.6 45 7.2 80 80 E 14 22 30.01 1016 10 16 0.00 0.00
8:53 am 08:53 Cloudy with Light Rain 52 11.1 45 7.2 77 77 E 13 20 30.00 1016 10 16 0.00 0.00
9:19 am 09:19 Cloudy with Thunderstorms 51 10.6 45 7.2 80 80 E 13 20 30.02 1017 10 16 0.00 0.00
9:50 am 09:50 Cloudy with Thunderstorms 50 10 46 8 88 88 ENE 16 26 29.98 1015 6 10 0.00 0.00
9:53 am 09:53 Cloudy with Thunderstorms 50 10 46 7.8 86 86 ENE 16 26 29.96 1015 4 6 0.00 0.00
10:23 am 10:23 Cloudy with Thunderstorms 49 9.4 47 8.3 93 93 E 17 28 29.99 1016 1 2 0.05 1.27
10:39 am 10:39 Windy with Storms Likely 49 9.4 47 8.3 93 93 W 20 31 30.10 1019 1 1 0.22 5.59
10:47 am 10:47 Cloudy with Strong Thunderstorms 48 9 46 8 94 94 ENE 9 15 30.06 1018 1 2 0.33 8.38
10:53 am 10:53 Cloudy with Strong Thunderstorms 49 9.4 47 8.3 93 93 ENE 12 19 30.01 1016 1 2 0.40 10.16
11:07 am 11:07 Cloudy with Thunderstorms 49 9.4 47 8.3 93 93 E 15 24 30.00 1016 2 3 0.06 1.52
11:15 am 11:15 Cloudy with Thunderstorms 49 9.4 48 8.9 97 97 E 13 20 30.00 1016 5 8 0.07 1.78
11:31 am 11:31 Cloudy with Light Rain 49 9.4 47 8.3 93 93 E 14 22 30.00 1016 10 16 0.07 1.78
11:43 am 11:43 Cloudy with Nearby Thunderstorms 50 10 48 8.9 93 93 E 10 17 30.01 1016 2 3 0.13 3.30
11:47 am 11:47 Cloudy with Thunderstorms 50 10 48 9 94 94 E 9 15 30.01 1016 3 5 0.14 3.56
11:53 am 11:53 Cloudy with Thunderstorms 50 10 48 8.9 93 93 E 10 17 30.00 1016 10 16 0.14 3.56
12:03 pm 12:03 Cloudy with Strong Thunderstorms 50 10 47 8.3 89 89 E 10 17 30.01 1016 2 3 0.02 0.51
12:12 pm 12:12 Cloudy with Thunderstorms 50 10 48 8.9 93 93 ENE 7 11 30.02 1017 3 5 0.11 2.79
12:31 pm 12:31 Cloudy with Light Rain 50 10 48 8.9 93 93 ENE 12 19 30.02 1017 3 4 0.12 3.05
12:46 pm 12:46 Cloudy with Drizzle 50 10 48 8.9 93 93 E 10 17 30.01 1016 2 2 0.12 3.05
12:53 pm 12:53 Cloudy with Drizzle 50 10 48 8.9 93 93 E 10 17 29.99 1016 2 2 0.12 3.05
1:10 pm 13:10 Cloudy with Thunderstorms 50 10 48 8.9 93 93 E 12 19 29.99 1016 1 2 0.00 0.00
1:28 pm 13:28 Cloudy with Light Rain 50 10 49 9.4 96 96 ENE 12 19 29.98 1015 2 2 0.01 0.25
1:53 pm 13:53 Cloudy with Drizzle 50 10 49 9.4 96 96 ENE 15 24 29.97 1015 2 2 0.01 0.25
2:53 pm 14:53 Cloudy with Light Rain 50 10 49 9.4 96 96 E 12 19 29.95 1014 2 2 0.02 0.51
2:55 pm 14:55 Cloudy with Thunderstorms 51 10.6 49 9.4 92 92 E 9 15 29.96 1015 2 2 0.01 0.25
3:41 pm 15:41 Cloudy with Thunderstorms 51 10.6 49 9.4 92 92 E 12 19 29.93 1013 2 2 0.16 4.06
3:53 pm 15:53 Cloudy with Thunderstorms 51 10.6 50 10 96 96 E 10 17 29.93 1014 1 1 0.20 5.08
3:56 pm 15:56 Cloudy with Thunderstorms 51 10.6 50 10 96 96 ENE 6 9 29.97 1015 1 2 0.02 0.51
3:59 pm 15:59 Cloudy with Thunderstorms 51 10.6 50 10 96 96 WSW 6 9 30.01 1016 1 2 0.02 0.51
4:03 pm 16:03 Cloudy with Thunderstorms 51 10.6 50 10 96 96 WSW 14 22 30.01 1016 1 1 0.03 0.76
4:14 pm 16:14 Cloudy with Strong Thunderstorms 51 10.6 50 10 96 96 VRB 5 7 29.96 1015 1 1 0.33 8.38
4:24 pm 16:24 Cloudy with Strong Thunderstorms 51 10.6 50 10 96 96 ENE 9 15 29.93 1013 1 2 0.56 14.22
4:36 pm 16:36 Cloudy with Thunderstorms 51 10.6 50 10 96 96 ENE 12 19 29.92 1013 3 5 0.62 15.75
4:53 pm 16:53 Cloudy with Thunderstorms 52 11.1 51 10.6 97 97 E 10 17 29.91 1013 7 11 0.63 16.00
5:08 pm 17:08 Cloudy 53 11.7 51 10.6 93 93 E 7 11 29.92 1013 10 16 0.00 0.00
5:53 pm 17:53 Cloudy 55 12.8 53 11.7 93 93 NE 6 9 29.92 1013 10 16 0.01 0.25
6:13 pm 18:13 Cloudy with Light Rain 55 12.8 53 11.7 93 93 NE 7 11 29.90 1012 10 16 0.00 0.00
6:19 pm 18:19 Cloudy with Thunderstorms 55 12.8 53 11.7 93 93 N 7 11 29.91 1013 10 16 0.00 0.00
6:43 pm 18:43 Cloudy with Thunderstorms 53 11.7 52 11.1 96 96 NE 8 13 29.90 1013 2 3 0.05 1.27
6:53 pm 18:53 Cloudy with Thunderstorms 53 11.7 52 11.1 96 96 NW 7 11 29.92 1013 2 3 0.07 1.78
6:59 pm 18:59 Cloudy with Strong Thunderstorms 53 11.7 52 11.1 96 96 NNW 7 11 29.91 1013 1 2 0.01 0.25
7:06 pm 19:06 Cloudy with Thunderstorms 53 11.7 52 11.1 96 96 NNE 3 6 29.91 1013 2 3 0.06 1.52
7:26 pm 19:26 Cloudy with Thunderstorms 53 11.7 52 11.1 96 96 N 8 13 29.91 1013 9 14 0.06 1.52
7:36 pm 19:36 Cloudy with Thunderstorms 53 11.7 52 11.1 96 96 N 9 15 29.91 1013 5 8 0.07 1.78
7:43 pm 19:43 Cloudy with Thunderstorms 54 12.2 52 11.1 93 93 N 8 13 29.90 1013 7 11 0.07 1.78
7:53 pm 19:53 Cloudy 54 12.2 52 11.1 93 93 NNE 7 11 29.90 1012 10 16 0.07 1.78
8:09 pm 20:09 Cloudy with Light Rain 54 12.2 52 11.1 93 93 NNE 9 15 29.90 1013 10 16 0.00 0.00
8:38 pm 20:38 Cloudy with Light Rain 54 12.2 53 11.7 97 97 NNE 9 15 29.90 1013 9 14 0.00 0.00
8:47 pm 20:47 Cloudy with Light Rain 54 12 54 12 100 100 NNE 7 11 29.92 1013 10 16 0.00 0.00
8:53 pm 20:53 Cloudy with Light Rain 54 12.2 53 11.7 97 97 N 6 9 29.92 1013 9 14 0.00 0.00
9:53 pm 21:53 Cloudy 54 12.2 52 11.1 93 93 NE 10 17 29.90 1012 10 16 0.01 0.25
10:11 pm 22:11 Cloudy with Thunderstorms 54 12.2 53 11.7 97 97 NW 5 7 29.93 1014 4 6 0.02 0.51
10:46 pm 22:46 Cloudy with Thunderstorms 54 12.2 54 12.2 100 100 Calm 29.95 1014 2 3 0.05 1.27
10:53 pm 22:53 Cloudy with Thunderstorms 54 12.2 53 11.7 97 97 SE 3 6 29.96 1015 2 3 0.06 1.52
11:00 pm 23:00 Cloudy with Thunderstorms 54 12.2 53 11.7 97 97 WNW 5 7 29.97 1015 2 3 0.01 0.25
11:11 pm 23:11 Cloudy with Thunderstorms 54 12.2 53 11.7 97 97 N 7 11 29.95 1014 5 8 0.02 0.51
11:33 pm 23:33 Cloudy with Thunderstorms 54 12.2 54 12.2 100 100 NNE 10 17 29.89 1012 6 10 0.02 0.51
11:53 pm 23:53 Cloudy with Thunderstorms 54 12.2 54 12.2 100 100 NNW 17 28 29.88 1012 10 16 0.03 0.76

Powered by AerisWeather